Location: Penton Mewsey
(51.2167°N, 1.5167°W)
Time: 23:59:28
(UTC+00:00)

Envisat - Pass Details

Date: 09 March 2021
Orbit: 764 x 766 km, 98.1° (Epoch: 22 April)

Event Time Altitude Azimuth Distance (km) Brightness Sun altitude
Rises 04:34:25 0° 26° (NNE) 3,246 6.9 -19.2°
Reaches altitude 10° 04:37:25 10° 44° (NE) 2,314 6.4 -18.8°
Maximum altitude 04:40:59 19° 89° (E) 1,775 5.8 -18.2°
Drops below altitude 10° 04:44:31 10° 133° (SE) 2,301 5.9 -17.7°
Sets 04:47:29 0° 151° (SSE) 3,221 6.4 -17.3°
